[Iaude] MPEC S89: 2016 SV3 [a=2.86,e=0.60,i=7.6,H=23.6]

mpec at si.edu mpec at si.edu
Thu Sep 29 15:19:52 EDT 2016


M.P.E.C. 2016-S89                                Issued 2016 Sept. 28, 16:18 UT
 
     The Minor Planet Electronic Circulars contain information on unusual
         minor planets and routine data on comets.  They are published
    on behalf of Division F of the International Astronomical Union by the
          Minor Planet Center, Smithsonian Astrophysical Observatory,
                          Cambridge, MA 02138, U.S.A.

             Prepared using the Tamkin Foundation Computer Network

                              MPC at CFA.HARVARD.EDU
            URL http://www.minorplanetcenter.net/    ISSN 1523-6714


                                   2016 SV3
 
Observations:
     K16S03V* C2016 09 26.39999 00 46 41.770-01 10 31.18         21.2 wLES089F51
     K16S03V  C2016 09 26.41078 00 46 42.604-01 09 56.92         21.1 wLES089F51
     K16S03V  C2016 09 26.42158 00 46 43.428-01 09 22.55         21.3 wLES089F51
     K16S03V KC2016 09 27.23114900 48 00.21 -00 26 11.3          21.2 VuES089H21
     K16S03V KC2016 09 27.24016700 48 00.95 -00 25 42.2          21.2 VuES089H21
     K16S03V KC2016 09 27.25107200 48 01.81 -00 25 06.2          21.2 VuES089H21
     K16S03V KC2016 09 27.29018600 48 04.22 -00 22 07.3          20.6 RtES089W86
     K16S03V KC2016 09 27.29594200 48 04.69 -00 21 48.3          20.6 RtES089W86
     K16S03V KC2016 09 27.30168800 48 05.17 -00 21 29.6          20.6 RtES089W86
     K16S03V _C2016 09 27.40990200 48 17.603-00 16 12.52         20.8 GUES089568
     K16S03V _C2016 09 27.41093700 48 17.685-00 16 09.10         20.8 GUES089568
     K16S03V _C2016 09 27.41198200 48 17.768-00 16 05.67         20.6 GUES089568
     K16S03V KC2016 09 27.95695 00 49 10.22 +00 13 47.9          21.0 RqES089104
     K16S03V KC2016 09 27.96801 00 49 11.20 +00 14 25.4          21.2 RqES089104
     K16S03V KC2016 09 27.98552 00 49 12.70 +00 15 24.5          20.8 RqES089104
 
Observer details:
104 San Marcello Pistoiese.  Observers P. Bacci, M. Maestripieri.  Measurers
    P. Bacci, L. Tesi, G. Fagioli.  0.60-m f/4 reflector + CCD.
568 Mauna Kea.  Observers R. J. Wainscoat, P. Forshay.  Measurers M. Micheli,
    R. J. Wainscoat.  3.6-m Canada-France-Hawaii Telescope + CCD.
F51 Pan-STARRS 1, Haleakala.  Observers B. Gibson, T. Goggia, S. Kahale,
    A. Schultz, M. Willman.  Measurers K. Chambers, S. Chastel, L. Denneau,
    H. Flewelling, M. Huber, E. Lilly, E. Magnier, R. Wainscoat, C. Waters,
    R. Weryk.  1.8-m Ritchey-Chretien + CCD.
H21 Astronomical Research Observatory, Westfield.  Observer R. Holmes.
    Measurers S. Foglia, L. Buzzi, T. Linder, R. Holmes.  0.76-m f/3.0
    astrograph + CCD, 0.81-m f/4.0 astrograph + CCD.
W86 Cerro Tololo-LCOGT B.  Observers T. Lister, S. Greenstreet, E. Gomez.
    Measurer T. Lister.  1.0-m f/8 Ritchey-Chretien + CCD.
 
Orbital elements:
2016 SV3                                                 Earth MOID = 0.1553 AU
Epoch 2016 July 31.0 TT = JDT 2457600.5                 MPC
M 342.43198              (2000.0)            P               Q
n   0.20414143     Peri.   21.16336     +0.84105935     -0.54027977
a   2.8565946      Node    11.65259     +0.47532102     +0.71449438
e   0.5991692      Incl.    7.61802     +0.25824231     +0.44451721
P   4.83           H   23.6           G   0.15           U   7
Residuals in seconds of arc
160926 F51  0.0   0.1-    160927 H21  0.2-  0.1+    160927 568  0.0   0.1-
160926 F51  0.0   0.0     160927 W86  0.0   0.0     160927 568  0.0   0.1-
160926 F51  0.1-  0.2+    160927 W86  0.0   0.2+    160927 104  0.8-  0.3-
160927 H21  0.1+  0.1+    160927 W86  0.2+  0.0     160927 104  0.1+  0.0
160927 H21  0.2+  0.2-    160927 568  0.0   0.1-    160927 104  0.6+  0.4+

Ephemeris:
2016 SV3                 a,e,i = 2.86, 0.60, 8                   q = 1.1450
Date    TT    R. A. (2000) Decl.     Delta      r     Elong.  Phase     V
2016 08 29    00 10 15.1 -15 13 52   0.3533  1.3384   155.0    18.6    22.9
...
2016 09 13    00 28 04.6 -10 08 50   0.2588  1.2560   163.1    13.5    21.9
...
2016 09 21    00 38 39.9 -05 26 09   0.2197  1.2196   167.8    10.0    21.4
...
2016 09 27    00 47 37.6 -00 38 17   0.1959  1.1964   171.5     7.1    21.0
2016 09 28    00 49 14.0 +00 16 42   0.1924  1.1929   172.2     6.6    20.9
2016 09 29    00 50 52.6 +01 13 42   0.1891  1.1896   172.7     6.1    20.8
...
2016 10 05    01 01 39.0 +07 37 30   0.1723  1.1717   174.7     4.5    20.5
...
2016 10 13    01 18 59.3 +17 38 39   0.1592  1.1548   170.0     8.6    20.5
...
2016 10 28    02 01 30.8 +36 15 27   0.1634  1.1456   156.8    20.0    21.0

A. U. Tomatic                (C) Copyright 2016 MPC           M.P.E.C. 2016-S89




More information about the Iaude mailing list